Time,TemperatureF,DewpointF,PressureIn,WindDirection,WindDirectionDegrees,WindSpeedMPH,WindSpeedGustMPH,Humidity,HourlyPrecipIn,Conditions,Clouds,dailyrainin,SoftwareType,DateUTC
2013-02-07 00:00:00,30.6,15.1,30.19,SE,135,6.0,10.0,52,0.00,,,0.07,meteohub,2013-02-07 05:00:00,
2013-02-07 00:01:00,30.6,15.1,30.19,SE,135,6.0,10.0,52,0.00,,,0.07,meteohub,2013-02-07 05:01:00,
2013-02-07 00:02:00,30.6,15.1,30.19,SE,135,6.0,10.0,52,0.00,,,0.07,meteohub,2013-02-07 05:02:00,
2013-02-07 00:03:00,30.6,15.1,30.19,SE,135,4.0,10.0,52,0.00,,,0.07,meteohub,2013-02-07 05:03:00,
2013-02-07 00:08:00,30.4,15.3,30.19,SE,135,2.0,6.0,53,0.00,,,0.00,meteohub,2013-02-07 05:08:00,
2013-02-07 00:14:00,30.2,15.6,30.19,South,180,3.0,6.0,54,0.00,,,0.00,meteohub,2013-02-07 05:14:00,
2013-02-07 00:19:00,30.2,15.1,30.20,SE,135,5.0,6.0,53,0.00,,,0.00,meteohub,2013-02-07 05:19:00,
2013-02-07 00:24:00,30.4,14.9,30.20,South,180,3.0,5.0,52,0.00,,,0.00,meteohub,2013-02-07 05:24:00,
2013-02-07 00:29:00,30.2,14.7,30.20,South,180,8.0,8.0,52,0.00,,,0.00,meteohub,2013-02-07 05:29:00,
2013-02-07 00:34:00,30.2,14.7,30.21,SE,135,3.0,6.0,52,0.00,,,0.00,meteohub,2013-02-07 05:34:00,
2013-02-07 00:39:00,30.0,15.4,30.21,SW,225,4.0,8.0,54,0.00,,,0.00,meteohub,2013-02-07 05:39:00,
2013-02-07 00:44:00,30.0,15.4,30.22,South,180,4.0,8.0,54,0.00,,,0.00,meteohub,2013-02-07 05:44:00,
2013-02-07 00:50:00,30.0,14.9,30.22,SE,135,6.0,6.0,53,0.00,,,0.00,meteohub,2013-02-07 05:50:00,
2013-02-07 00:55:00,30.0,14.9,30.21,SW,225,6.0,6.0,53,0.00,,,0.00,meteohub,2013-02-07 05:55:00,
2013-02-07 01:00:00,30.0,14.9,30.22,South,180,4.0,6.0,53,0.00,,,0.00,meteohub,2013-02-07 06:00:00,
2013-02-07 01:05:00,30.0,14.9,30.22,South,180,4.0,6.0,53,0.00,,,0.00,meteohub,2013-02-07 06:05:00,
2013-02-07 01:10:00,30.0,14.0,30.22,SE,135,4.0,7.0,51,0.00,,,0.00,meteohub,2013-02-07 06:10:00,
2013-02-07 01:15:00,30.0,14.5,30.23,South,180,4.0,8.0,52,0.00,,,0.00,meteohub,2013-02-07 06:15:00,
2013-02-07 01:20:00,30.0,14.5,30.22,SW,225,4.0,8.0,52,0.00,,,0.00,meteohub,2013-02-07 06:20:00,
2013-02-07 01:25:00,29.8,14.4,30.22,West,270,4.0,8.0,52,0.00,,,0.00,meteohub,2013-02-07 06:25:00,
2013-02-07 01:31:00,29.7,14.2,30.22,SW,225,2.0,7.0,52,0.00,,,0.00,meteohub,2013-02-07 06:31:00,
2013-02-07 01:36:00,29.5,14.0,30.23,East,90,2.0,7.0,52,0.00,,,0.00,meteohub,2013-02-07 06:36:00,
2013-02-07 01:41:00,29.3,13.8,30.23,SW,225,2.0,7.0,52,0.00,,,0.00,meteohub,2013-02-07 06:41:00,
2013-02-07 01:46:00,29.1,14.2,30.23,South,180,2.0,6.0,53,0.00,,,0.00,meteohub,2013-02-07 06:46:00,
2013-02-07 01:51:00,28.6,14.5,30.24,SW,225,4.0,4.0,55,0.00,,,0.00,meteohub,2013-02-07 06:51:00,
2013-02-07 01:56:00,28.6,14.5,30.24,South,180,4.0,4.0,55,0.00,,,0.00,meteohub,2013-02-07 06:56:00,
2013-02-07 02:01:00,28.4,14.7,30.24,South,180,1.0,4.0,56,0.00,,,0.00,meteohub,2013-02-07 07:01:00,
2013-02-07 02:06:00,27.9,12.6,30.25,South,180,2.0,4.0,52,0.00,,,0.00,meteohub,2013-02-07 07:06:00,
2013-02-07 02:12:00,27.5,12.6,30.25,SW,225,2.0,4.0,53,0.00,,,0.00,meteohub,2013-02-07 07:12:00,
2013-02-07 02:17:00,27.3,12.9,30.25,South,180,2.0,2.0,54,0.00,,,0.00,meteohub,2013-02-07 07:17:00,
2013-02-07 02:22:00,27.3,12.9,30.25,SW,225,3.0,4.0,54,0.00,,,0.00,meteohub,2013-02-07 07:22:00,
2013-02-07 02:27:00,27.5,13.1,30.25,SW,225,2.0,4.0,54,0.00,,,0.00,meteohub,2013-02-07 07:27:00,
2013-02-07 02:32:00,27.3,12.4,30.25,SW,225,2.0,4.0,53,0.00,,,0.00,meteohub,2013-02-07 07:32:00,
2013-02-07 02:37:00,27.0,12.0,30.25,South,180,2.0,3.0,53,0.00,,,0.00,meteohub,2013-02-07 07:37:00,
2013-02-07 02:42:00,27.0,12.0,30.25,West,270,2.0,3.0,53,0.00,,,0.00,meteohub,2013-02-07 07:42:00,
2013-02-07 02:47:00,27.0,12.0,30.25,WSW,248,3.0,3.0,53,0.00,,,0.00,meteohub,2013-02-07 07:47:00,
2013-02-07 02:52:00,26.8,12.0,30.25,SW,225,3.0,4.0,53,0.00,,,0.00,meteohub,2013-02-07 07:52:00,
2013-02-07 02:57:00,26.8,12.0,30.25,South,180,2.0,4.0,53,0.00,,,0.00,meteohub,2013-02-07 07:57:00,
2013-02-07 03:02:00,26.6,11.8,30.26,SSW,203,4.0,4.0,53,0.00,,,0.00,meteohub,2013-02-07 08:02:00,
2013-02-07 03:07:00,26.6,11.8,30.26,SSW,203,4.0,4.0,53,0.00,,,0.00,meteohub,2013-02-07 08:07:00,
2013-02-07 03:12:00,26.4,11.1,30.26,WSW,248,3.0,4.0,52,0.00,,,0.00,meteohub,2013-02-07 08:12:00,
2013-02-07 03:17:00,26.2,11.5,30.26,West,270,3.0,4.0,53,0.00,,,0.00,meteohub,2013-02-07 08:17:00,
2013-02-07 03:22:00,26.2,10.9,30.27,South,180,4.0,4.0,52,0.00,,,0.00,meteohub,2013-02-07 08:22:00,
2013-02-07 03:27:00,26.2,10.9,30.27,West,270,3.0,4.0,52,0.00,,,0.00,meteohub,2013-02-07 08:27:00,
2013-02-07 03:32:00,26.1,10.8,30.27,WNW,293,2.0,4.0,52,0.00,,,0.00,meteohub,2013-02-07 08:32:00,
2013-02-07 03:37:00,25.9,10.8,30.28,South,180,2.0,4.0,52,0.00,,,0.00,meteohub,2013-02-07 08:37:00,
2013-02-07 03:42:00,25.9,10.2,30.27,South,180,2.0,4.0,51,0.00,,,0.00,meteohub,2013-02-07 08:42:00,
2013-02-07 03:47:00,25.7,10.0,30.28,South,180,3.0,4.0,51,0.00,,,0.00,meteohub,2013-02-07 08:47:00,
2013-02-07 03:52:00,25.7,9.7,30.28,South,180,3.0,4.0,50,0.00,,,0.00,meteohub,2013-02-07 08:52:00,
2013-02-07 03:57:00,25.7,9.1,30.28,West,270,2.0,4.0,49,0.00,,,0.00,meteohub,2013-02-07 08:57:00,
2013-02-07 04:02:00,25.5,9.0,30.29,WSW,248,4.0,4.0,49,0.00,,,0.00,meteohub,2013-02-07 09:02:00,
2013-02-07 04:07:00,25.5,9.0,30.29,SW,225,2.0,4.0,49,0.00,,,0.00,meteohub,2013-02-07 09:07:00,
2013-02-07 04:12:00,25.2,8.6,30.30,SW,225,3.0,4.0,49,0.00,,,0.00,meteohub,2013-02-07 09:12:00,
2013-02-07 04:17:00,25.0,8.6,30.30,WSW,248,4.0,4.0,49,0.00,,,0.00,meteohub,2013-02-07 09:17:00,
2013-02-07 04:22:00,25.0,8.6,30.30,South,180,2.0,4.0,49,0.00,,,0.00,meteohub,2013-02-07 09:22:00,
2013-02-07 04:27:00,25.0,8.6,30.30,South,180,2.0,4.0,49,0.00,,,0.00,meteohub,2013-02-07 09:27:00,
2013-02-07 04:32:00,25.0,8.1,30.30,South,180,6.0,6.0,48,0.00,,,0.00,meteohub,2013-02-07 09:32:00,
2013-02-07 04:37:00,25.2,7.7,30.30,SE,135,4.0,8.0,47,0.00,,,0.00,meteohub,2013-02-07 09:37:00,
2013-02-07 04:42:00,25.0,7.5,30.30,South,180,4.0,8.0,47,0.00,,,0.00,meteohub,2013-02-07 09:42:00,
2013-02-07 04:47:00,24.8,7.3,30.30,South,180,5.0,8.0,47,0.00,,,0.00,meteohub,2013-02-07 09:47:00,
2013-02-07 04:52:00,24.8,7.3,30.30,South,180,3.0,6.0,47,0.00,,,0.00,meteohub,2013-02-07 09:52:00,
2013-02-07 04:57:00,24.6,7.7,30.30,SW,225,3.0,6.0,48,0.00,,,0.00,meteohub,2013-02-07 09:57:00,
2013-02-07 05:02:00,24.4,7.5,30.30,West,270,3.0,6.0,48,0.00,,,0.00,meteohub,2013-02-07 10:02:00,
2013-02-07 05:07:00,24.4,7.5,30.30,SW,225,2.0,5.0,48,0.00,,,0.00,meteohub,2013-02-07 10:07:00,
2013-02-07 05:12:00,24.3,7.3,30.31,SW,225,2.0,5.0,48,0.00,,,0.00,meteohub,2013-02-07 10:12:00,
2013-02-07 05:17:00,24.3,7.9,30.31,South,180,2.0,5.0,49,0.00,,,0.00,meteohub,2013-02-07 10:17:00,
2013-02-07 05:22:00,24.3,7.3,30.31,SSE,158,2.0,5.0,48,0.00,,,0.00,meteohub,2013-02-07 10:22:00,
2013-02-07 05:27:00,24.3,7.3,30.31,SW,225,4.0,5.0,48,0.00,,,0.00,meteohub,2013-02-07 10:27:00,
2013-02-07 05:32:00,24.1,7.2,30.32,SW,225,2.0,5.0,48,0.00,,,0.00,meteohub,2013-02-07 10:32:00,
2013-02-07 05:37:00,23.9,7.0,30.32,South,180,2.0,5.0,48,0.00,,,0.00,meteohub,2013-02-07 10:37:00,
2013-02-07 05:42:00,23.9,7.0,30.32,SW,225,4.0,5.0,48,0.00,,,0.00,meteohub,2013-02-07 10:42:00,
2013-02-07 05:47:00,23.9,7.0,30.32,SE,135,2.0,4.0,48,0.00,,,0.00,meteohub,2013-02-07 10:47:00,
2013-02-07 05:52:00,23.9,7.0,30.33,SW,225,2.0,4.0,48,0.00,,,0.00,meteohub,2013-02-07 10:52:00,
2013-02-07 05:57:00,23.7,7.0,30.33,South,180,3.0,4.0,48,0.00,,,0.00,meteohub,2013-02-07 10:57:00,
2013-02-07 06:02:00,23.9,7.0,30.33,North,0,2.0,4.0,48,0.00,,,0.00,meteohub,2013-02-07 11:02:00,
2013-02-07 06:07:00,23.9,6.6,30.33,SW,225,2.0,4.0,47,0.00,,,0.00,meteohub,2013-02-07 11:07:00,
2013-02-07 06:12:00,23.9,7.0,30.33,SW,225,2.0,4.0,48,0.00,,,0.00,meteohub,2013-02-07 11:12:00,
2013-02-07 06:17:00,23.7,7.0,30.33,NE,45,4.0,4.0,48,0.00,,,0.00,meteohub,2013-02-07 11:17:00,
2013-02-07 06:22:00,23.7,7.0,30.33,South,180,2.0,4.0,48,0.00,,,0.00,meteohub,2013-02-07 11:22:00,
2013-02-07 06:27:00,23.7,7.0,30.34,SW,225,4.0,4.0,48,0.00,,,0.00,meteohub,2013-02-07 11:27:00,
2013-02-07 06:32:00,23.5,6.8,30.34,SE,135,2.0,4.0,48,0.00,,,0.00,meteohub,2013-02-07 11:32:00,
2013-02-07 06:37:00,23.4,7.0,30.34,South,180,2.0,4.0,49,0.00,,,0.00,meteohub,2013-02-07 11:37:00,
2013-02-07 06:42:00,23.2,6.8,30.35,South,180,2.0,4.0,49,0.00,,,0.00,meteohub,2013-02-07 11:42:00,
2013-02-07 06:47:00,23.2,6.8,30.35,South,180,1.0,3.0,49,0.00,,,0.00,meteohub,2013-02-07 11:47:00,
2013-02-07 06:52:00,23.4,7.5,30.35,SW,225,3.0,4.0,50,0.00,,,0.00,meteohub,2013-02-07 11:52:00,
2013-02-07 06:57:00,23.5,7.2,30.36,West,270,4.0,4.0,49,0.00,,,0.00,meteohub,2013-02-07 11:57:00,
2013-02-07 07:02:00,23.7,7.3,30.36,SW,225,2.0,4.0,49,0.00,,,0.00,meteohub,2013-02-07 12:02:00,
2013-02-07 07:07:00,23.7,7.3,30.36,South,180,2.0,4.0,49,0.00,,,0.00,meteohub,2013-02-07 12:07:00,
2013-02-07 07:12:00,23.9,7.0,30.36,SE,135,2.0,4.0,48,0.00,,,0.00,meteohub,2013-02-07 12:12:00,
2013-02-07 07:17:00,23.9,7.0,30.36,SW,225,4.0,4.0,48,0.00,,,0.00,meteohub,2013-02-07 12:17:00,
2013-02-07 07:22:00,23.9,7.0,30.36,SW,225,4.0,4.0,48,0.00,,,0.00,meteohub,2013-02-07 12:22:00,
2013-02-07 07:27:00,24.6,7.3,30.37,SE,135,5.0,5.0,47,0.00,,,0.00,meteohub,2013-02-07 12:27:00,
2013-02-07 07:32:00,24.6,6.8,30.37,South,180,4.0,6.0,46,0.00,,,0.00,meteohub,2013-02-07 12:32:00,
2013-02-07 07:37:00,25.0,6.1,30.37,South,180,4.0,6.0,44,0.00,,,0.00,meteohub,2013-02-07 12:37:00,
2013-02-07 07:42:00,25.2,6.3,30.37,South,180,4.0,6.0,44,0.00,,,0.00,meteohub,2013-02-07 12:42:00,
2013-02-07 07:47:00,25.2,6.3,30.38,SE,135,2.0,4.0,44,0.00,,,0.00,meteohub,2013-02-07 12:47:00,
2013-02-07 07:52:00,25.2,5.7,30.38,NE,45,3.0,4.0,43,0.00,,,0.00,meteohub,2013-02-07 12:52:00,
2013-02-07 07:57:00,25.3,5.9,30.39,SE,135,2.0,4.0,43,0.00,,,0.00,meteohub,2013-02-07 12:57:00,
2013-02-07 08:03:00,25.3,5.4,30.39,SE,135,2.0,4.0,42,0.00,,,0.00,meteohub,2013-02-07 13:03:00,
2013-02-07 08:08:00,25.7,5.7,30.40,South,180,4.0,4.0,42,0.00,,,0.00,meteohub,2013-02-07 13:08:00,
2013-02-07 08:13:00,26.1,6.1,30.39,SW,225,4.0,4.0,42,0.00,,,0.00,meteohub,2013-02-07 13:13:00,
2013-02-07 08:18:00,26.4,5.4,30.40,NE,45,4.0,6.0,40,0.00,,,0.00,meteohub,2013-02-07 13:18:00,
2013-02-07 08:23:00,26.8,5.2,30.40,South,180,4.0,6.0,39,0.00,,,0.00,meteohub,2013-02-07 13:23:00,
2013-02-07 08:28:00,27.1,4.3,30.40,SW,225,6.0,6.0,37,0.00,,,0.00,meteohub,2013-02-07 13:28:00,
2013-02-07 08:34:00,27.1,3.7,30.40,South,180,8.0,8.0,36,0.00,,,0.00,meteohub,2013-02-07 13:34:00,
2013-02-07 08:39:00,27.1,4.3,30.41,East,90,7.0,8.0,37,0.00,,,0.00,meteohub,2013-02-07 13:39:00,
2013-02-07 08:44:00,27.0,4.6,30.40,SW,225,5.0,8.0,38,0.00,,,0.00,meteohub,2013-02-07 13:44:00,
2013-02-07 08:49:00,26.8,5.2,30.40,SW,225,4.0,8.0,39,0.00,,,0.00,meteohub,2013-02-07 13:49:00,
2013-02-07 08:54:00,26.6,5.0,30.40,NE,45,6.0,8.0,39,0.00,,,0.00,meteohub,2013-02-07 13:54:00,
2013-02-07 08:59:00,27.3,5.5,30.41,East,90,2.0,9.0,39,0.00,,,0.00,meteohub,2013-02-07 13:59:00,
2013-02-07 09:04:00,27.3,5.5,30.40,East,90,2.0,9.0,39,0.00,,,0.00,meteohub,2013-02-07 14:04:00,
2013-02-07 09:09:00,27.9,4.3,30.40,WSW,248,7.0,9.0,36,0.00,,,0.00,meteohub,2013-02-07 14:09:00,
2013-02-07 09:15:00,27.9,4.3,30.40,South,180,7.0,8.0,36,0.00,,,0.00,meteohub,2013-02-07 14:15:00,
2013-02-07 09:20:00,28.4,7.2,30.41,South,180,4.0,11.0,40,0.00,,,0.00,meteohub,2013-02-07 14:20:00,
2013-02-07 09:25:00,28.4,6.6,30.41,SW,225,6.0,11.0,39,0.00,,,0.00,meteohub,2013-02-07 14:25:00,
2013-02-07 09:30:00,28.4,7.2,30.41,South,180,6.0,9.0,40,0.00,,,0.00,meteohub,2013-02-07 14:30:00,
2013-02-07 09:35:00,28.4,6.1,30.42,SE,135,6.0,9.0,38,0.00,,,0.00,meteohub,2013-02-07 14:35:00,
2013-02-07 09:40:00,28.8,6.3,30.42,East,90,4.0,9.0,38,0.00,,,0.00,meteohub,2013-02-07 14:40:00,
2013-02-07 09:45:00,29.7,8.2,30.42,SE,135,5.0,9.0,40,0.00,,,0.00,meteohub,2013-02-07 14:45:00,
2013-02-07 09:51:00,29.3,6.8,30.42,West,270,9.0,9.0,38,0.00,,,0.00,meteohub,2013-02-07 14:51:00,
2013-02-07 09:56:00,28.6,6.8,30.43,SSW,203,7.0,9.0,39,0.00,,,0.00,meteohub,2013-02-07 14:56:00,
2013-02-07 10:01:00,28.0,4.5,30.42,South,180,5.0,9.0,36,0.00,,,0.00,meteohub,2013-02-07 15:01:00,
2013-02-07 10:06:00,27.9,6.1,30.43,SW,225,5.0,9.0,39,0.00,,,0.00,meteohub,2013-02-07 15:06:00,
2013-02-07 10:11:00,27.3,6.3,30.43,South,180,6.0,8.0,40,0.00,,,0.00,meteohub,2013-02-07 15:11:00,
2013-02-07 10:16:00,27.5,6.3,30.43,SSW,203,7.0,8.0,40,0.00,,,0.00,meteohub,2013-02-07 15:16:00,
2013-02-07 10:21:00,27.5,6.3,30.43,SE,135,2.0,8.0,40,0.00,,,0.00,meteohub,2013-02-07 15:21:00,
2013-02-07 10:26:00,27.7,7.0,30.43,South,180,5.0,7.0,41,0.00,,,0.00,meteohub,2013-02-07 15:26:00,
2013-02-07 10:31:00,27.7,7.0,30.43,NW,315,4.0,7.0,41,0.00,,,0.00,meteohub,2013-02-07 15:31:00,
2013-02-07 10:37:00,27.5,6.8,30.44,SE,135,6.0,8.0,41,0.00,,,0.00,meteohub,2013-02-07 15:37:00,
2013-02-07 10:42:00,27.5,6.8,30.44,South,180,7.0,9.0,41,0.00,,,0.00,meteohub,2013-02-07 15:42:00,
2013-02-07 10:47:00,28.0,7.3,30.44,NE,45,4.0,9.0,41,0.00,,,0.00,meteohub,2013-02-07 15:47:00,
2013-02-07 10:52:00,28.4,9.7,30.44,South,180,7.0,8.0,45,0.00,,,0.00,meteohub,2013-02-07 15:52:00,
2013-02-07 10:57:00,27.9,7.2,30.45,SW,225,8.0,8.0,41,0.00,,,0.00,meteohub,2013-02-07 15:57:00,
2013-02-07 11:02:00,27.7,7.0,30.44,South,180,8.0,8.0,41,0.00,,,0.00,meteohub,2013-02-07 16:02:00,
2013-02-07 11:07:00,27.9,7.2,30.44,SSW,203,4.0,8.0,41,0.00,,,0.00,meteohub,2013-02-07 16:07:00,
2013-02-07 11:12:00,28.4,9.7,30.45,SSE,158,2.0,8.0,45,0.00,,,0.00,meteohub,2013-02-07 16:12:00,
2013-02-07 11:18:00,28.8,10.0,30.45,South,180,6.0,8.0,45,0.00,,,0.00,meteohub,2013-02-07 16:18:00,
2013-02-07 11:23:00,28.8,10.0,30.44,South,180,4.0,8.0,45,0.00,,,0.00,meteohub,2013-02-07 16:23:00,
2013-02-07 11:28:00,28.8,9.1,30.44,SW,225,6.0,8.0,43,0.00,,,0.00,meteohub,2013-02-07 16:28:00,
2013-02-07 11:33:00,29.5,9.7,30.44,NE,45,4.0,8.0,43,0.00,,,0.00,meteohub,2013-02-07 16:33:00,
2013-02-07 11:38:00,30.2,9.3,30.43,SE,135,5.0,8.0,41,0.00,,,0.00,meteohub,2013-02-07 16:38:00,
2013-02-07 11:43:00,30.9,10.0,30.44,SW,225,5.0,8.0,41,0.00,,,0.00,meteohub,2013-02-07 16:43:00,
2013-02-07 11:48:00,32.0,9.9,30.44,SW,225,5.0,8.0,39,0.00,,,0.00,meteohub,2013-02-07 16:48:00,
2013-02-07 11:53:00,32.7,9.9,30.44,West,270,4.0,8.0,38,0.00,,,0.00,meteohub,2013-02-07 16:53:00,
2013-02-07 11:59:00,33.1,9.0,30.43,West,270,7.0,8.0,36,0.00,,,0.00,meteohub,2013-02-07 16:59:00,
2013-02-07 12:04:00,32.2,9.5,30.43,South,180,9.0,9.0,38,0.00,,,0.00,meteohub,2013-02-07 17:04:00,
2013-02-07 12:09:00,32.2,8.8,30.43,South,180,5.0,9.0,37,0.00,,,0.00,meteohub,2013-02-07 17:09:00,
2013-02-07 12:14:00,31.6,9.5,30.43,SE,135,3.0,9.0,39,0.00,,,0.00,meteohub,2013-02-07 17:14:00,
2013-02-07 12:19:00,32.4,9.0,30.43,WSW,248,7.0,9.0,37,0.00,,,0.00,meteohub,2013-02-07 17:19:00,
2013-02-07 12:24:00,33.6,10.8,30.43,South,180,7.0,8.0,38,0.00,,,0.00,meteohub,2013-02-07 17:24:00,
2013-02-07 12:29:00,32.7,8.8,30.43,South,180,4.0,8.0,36,0.00,,,0.00,meteohub,2013-02-07 17:29:00,
2013-02-07 12:34:00,32.4,9.0,30.43,SW,225,4.0,7.0,37,0.00,,,0.00,meteohub,2013-02-07 17:34:00,
2013-02-07 12:40:00,32.7,9.3,30.42,South,180,5.0,7.0,37,0.00,,,0.00,meteohub,2013-02-07 17:40:00,
2013-02-07 12:45:00,33.1,9.7,30.42,West,270,7.0,7.0,37,0.00,,,0.00,meteohub,2013-02-07 17:45:00,
2013-02-07 12:50:00,31.8,8.4,30.42,South,180,6.0,7.0,37,0.00,,,0.00,meteohub,2013-02-07 17:50:00,
2013-02-07 12:55:00,31.6,9.0,30.42,South,180,4.0,7.0,38,0.00,,,0.00,meteohub,2013-02-07 17:55:00,
2013-02-07 13:00:00,31.5,8.8,30.42,SE,135,3.0,7.0,38,0.00,,,0.00,meteohub,2013-02-07 18:00:00,
2013-02-07 13:05:00,32.0,9.3,30.42,SE,135,5.0,7.0,38,0.00,,,0.00,meteohub,2013-02-07 18:05:00,
2013-02-07 13:11:00,32.4,9.5,30.42,South,180,5.0,6.0,38,0.00,,,0.00,meteohub,2013-02-07 18:11:00,
2013-02-07 13:16:00,32.7,9.3,30.42,SW,225,3.0,6.0,37,0.00,,,0.00,meteohub,2013-02-07 18:16:00,
2013-02-07 13:21:00,32.7,8.8,30.41,South,180,5.0,5.0,36,0.00,,,0.00,meteohub,2013-02-07 18:21:00,
2013-02-07 13:26:00,31.3,8.6,30.41,SE,135,6.0,6.0,38,0.00,,,0.00,meteohub,2013-02-07 18:26:00,
2013-02-07 13:31:00,32.0,9.3,30.41,South,180,3.0,6.0,38,0.00,,,0.00,meteohub,2013-02-07 18:31:00,
2013-02-07 13:36:00,32.2,8.2,30.41,South,180,3.0,6.0,36,0.00,,,0.00,meteohub,2013-02-07 18:36:00,
2013-02-07 13:41:00,33.4,9.3,30.41,WSW,248,4.0,6.0,36,0.00,,,0.00,meteohub,2013-02-07 18:41:00,
2013-02-07 13:46:00,33.8,7.0,30.40,SW,225,4.0,5.0,32,0.00,,,0.00,meteohub,2013-02-07 18:46:00,
2013-02-07 13:51:00,33.4,7.3,30.40,SSE,158,5.0,5.0,33,0.00,,,0.00,meteohub,2013-02-07 18:51:00,
2013-02-07 13:57:00,32.0,6.8,30.40,East,90,4.0,5.0,34,0.00,,,0.00,meteohub,2013-02-07 18:57:00,
2013-02-07 14:02:00,31.5,8.8,30.40,SW,225,4.0,5.0,38,0.00,,,0.00,meteohub,2013-02-07 19:02:00,
2013-02-07 14:07:00,31.1,9.7,30.40,SW,225,6.0,6.0,40,0.00,,,0.00,meteohub,2013-02-07 19:07:00,
2013-02-07 14:12:00,30.2,8.8,30.40,South,180,2.0,6.0,40,0.00,,,0.00,meteohub,2013-02-07 19:12:00,
2013-02-07 14:17:00,30.4,9.5,30.40,NW,315,5.0,6.0,41,0.00,,,0.00,meteohub,2013-02-07 19:17:00,
2013-02-07 14:22:00,30.0,10.2,30.41,NE,45,4.0,6.0,43,0.00,,,0.00,meteohub,2013-02-07 19:22:00,
2013-02-07 14:27:00,30.2,10.9,30.40,West,270,4.0,7.0,44,0.00,,,0.00,meteohub,2013-02-07 19:27:00,
2013-02-07 14:32:00,29.1,10.4,30.41,SW,225,7.0,8.0,45,0.00,,,0.00,meteohub,2013-02-07 19:32:00,
2013-02-07 14:37:00,29.5,11.3,30.41,SW,225,4.0,8.0,46,0.00,,,0.00,meteohub,2013-02-07 19:37:00,
2013-02-07 14:42:00,31.1,11.7,30.40,SW,225,4.0,8.0,44,0.00,,,0.00,meteohub,2013-02-07 19:42:00,
2013-02-07 14:47:00,30.2,10.9,30.40,SW,225,3.0,7.0,44,0.00,,,0.00,meteohub,2013-02-07 19:47:00,
2013-02-07 14:52:00,30.4,11.7,30.40,WSW,248,4.0,8.0,45,0.00,,,0.00,meteohub,2013-02-07 19:52:00,
2013-02-07 14:57:00,29.8,11.7,30.41,SW,225,4.0,8.0,46,0.00,,,0.00,meteohub,2013-02-07 19:57:00,
2013-02-07 15:02:00,30.0,11.7,30.41,South,180,4.0,6.0,46,0.00,,,0.00,meteohub,2013-02-07 20:02:00,
2013-02-07 15:07:00,29.8,12.0,30.41,South,180,4.0,5.0,47,0.00,,,0.00,meteohub,2013-02-07 20:07:00,
2013-02-07 15:12:00,29.5,12.2,30.41,NW,315,4.0,4.0,48,0.00,,,0.00,meteohub,2013-02-07 20:12:00,
2013-02-07 15:18:00,29.3,12.6,30.41,NW,315,5.0,5.0,49,0.00,,,0.00,meteohub,2013-02-07 20:18:00,
2013-02-07 15:23:00,28.6,11.8,30.41,West,270,4.0,5.0,49,0.00,,,0.00,meteohub,2013-02-07 20:23:00,
2013-02-07 15:28:00,28.0,9.9,30.41,SE,135,2.0,5.0,46,0.00,,,0.00,meteohub,2013-02-07 20:28:00,
2013-02-07 15:33:00,28.0,10.4,30.41,SW,225,2.0,5.0,47,0.00,,,0.00,meteohub,2013-02-07 20:33:00,
2013-02-07 15:38:00,28.0,10.9,30.41,East,90,2.0,4.0,48,0.00,,,0.00,meteohub,2013-02-07 20:38:00,
2013-02-07 15:43:00,27.9,10.8,30.41,WNW,293,3.0,4.0,48,0.00,,,0.00,meteohub,2013-02-07 20:43:00,
2013-02-07 15:48:00,27.5,10.8,30.41,West,270,4.0,5.0,49,0.00,,,0.00,meteohub,2013-02-07 20:48:00,
2013-02-07 15:53:00,27.0,11.3,30.41,South,180,1.0,5.0,51,0.00,,,0.00,meteohub,2013-02-07 20:53:00,
2013-02-07 15:59:00,27.1,11.5,30.40,SW,225,4.0,5.0,51,0.00,,,0.00,meteohub,2013-02-07 20:59:00,
2013-02-07 16:04:00,27.0,11.3,30.40,SW,225,4.0,4.0,51,0.00,,,0.00,meteohub,2013-02-07 21:04:00,
2013-02-07 16:09:00,26.6,11.3,30.40,East,90,2.0,4.0,52,0.00,,,0.00,meteohub,2013-02-07 21:09:00,
2013-02-07 16:14:00,26.4,11.7,30.40,West,270,2.0,4.0,53,0.00,,,0.00,meteohub,2013-02-07 21:14:00,
2013-02-07 16:19:00,26.4,11.7,30.40,South,180,3.0,4.0,53,0.00,,,0.00,meteohub,2013-02-07 21:19:00,
2013-02-07 16:24:00,26.2,11.5,30.40,South,180,2.0,4.0,53,0.00,,,0.00,meteohub,2013-02-07 21:24:00,
2013-02-07 16:29:00,26.2,11.5,30.40,West,270,2.0,4.0,53,0.00,,,0.00,meteohub,2013-02-07 21:29:00,
2013-02-07 16:34:00,26.2,11.8,30.40,South,180,2.0,4.0,54,0.00,,,0.00,meteohub,2013-02-07 21:34:00,
2013-02-07 16:40:00,26.1,11.7,30.40,West,270,2.0,4.0,54,0.00,,,0.00,meteohub,2013-02-07 21:40:00,
2013-02-07 16:45:00,26.1,11.7,30.40,West,270,3.0,4.0,54,0.00,,,0.00,meteohub,2013-02-07 21:45:00,
2013-02-07 16:50:00,25.9,11.5,30.40,SW,225,2.0,3.0,54,0.00,,,0.00,meteohub,2013-02-07 21:50:00,
2013-02-07 16:55:00,25.7,11.3,30.40,SE,135,2.0,3.0,54,0.00,,,0.00,meteohub,2013-02-07 21:55:00,
2013-02-07 17:00:00,25.5,11.1,30.40,SW,225,2.0,3.0,54,0.00,,,0.00,meteohub,2013-02-07 22:00:00,
2013-02-07 17:05:00,25.3,10.9,30.40,South,180,0.0,2.0,54,0.00,,,0.00,meteohub,2013-02-07 22:05:00,
2013-02-07 17:10:00,25.0,11.1,30.40,SE,135,1.0,2.0,55,0.00,,,0.00,meteohub,2013-02-07 22:10:00,
2013-02-07 17:15:00,24.8,10.9,30.40,SE,135,0.0,2.0,55,0.00,,,0.00,meteohub,2013-02-07 22:15:00,
2013-02-07 17:20:00,24.6,11.1,30.40,SE,135,1.0,2.0,56,0.00,,,0.00,meteohub,2013-02-07 22:20:00,
2013-02-07 17:26:00,24.3,10.8,30.40,SE,135,1.0,2.0,56,0.00,,,0.00,meteohub,2013-02-07 22:26:00,
2013-02-07 17:31:00,24.3,11.3,30.41,SE,135,1.0,2.0,57,0.00,,,0.00,meteohub,2013-02-07 22:31:00,
2013-02-07 17:36:00,24.1,11.5,30.41,NE,45,1.0,2.0,58,0.00,,,0.00,meteohub,2013-02-07 22:36:00,
2013-02-07 17:41:00,24.1,11.5,30.42,NE,45,0.0,2.0,58,0.00,,,0.00,meteohub,2013-02-07 22:41:00,
2013-02-07 17:46:00,24.1,11.5,30.42,SE,135,1.0,2.0,58,0.00,,,0.00,meteohub,2013-02-07 22:46:00,
2013-02-07 17:51:00,23.9,11.7,30.42,East,90,1.0,2.0,59,0.00,,,0.00,meteohub,2013-02-07 22:51:00,
2013-02-07 17:56:00,24.1,11.8,30.42,East,90,0.0,2.0,59,0.00,,,0.00,meteohub,2013-02-07 22:56:00,
2013-02-07 18:01:00,24.1,12.2,30.42,NE,45,2.0,2.0,60,0.00,,,0.00,meteohub,2013-02-07 23:01:00,
2013-02-07 18:06:00,24.3,12.7,30.42,NE,45,0.0,2.0,61,0.00,,,0.00,meteohub,2013-02-07 23:06:00,
2013-02-07 18:12:00,24.4,13.3,30.42,NE,45,0.0,2.0,62,0.00,,,0.00,meteohub,2013-02-07 23:12:00,
2013-02-07 18:17:00,24.4,13.6,30.42,NE,45,0.0,2.0,63,0.00,,,0.00,meteohub,2013-02-07 23:17:00,
2013-02-07 18:22:00,24.6,13.5,30.42,NE,45,0.0,1.0,62,0.00,,,0.00,meteohub,2013-02-07 23:22:00,
2013-02-07 18:27:00,24.8,13.3,30.43,NE,45,0.0,0.0,61,0.00,,,0.00,meteohub,2013-02-07 23:27:00,
2013-02-07 18:32:00,25.0,13.8,30.43,South,180,0.0,0.0,62,0.00,,,0.00,meteohub,2013-02-07 23:32:00,
2013-02-07 18:37:00,25.2,14.0,30.43,SE,135,2.0,0.0,62,0.00,,,0.00,meteohub,2013-02-07 23:37:00,
2013-02-07 18:42:00,25.3,14.2,30.43,East,90,1.0,2.0,62,0.00,,,0.00,meteohub,2013-02-07 23:42:00,
2013-02-07 18:47:00,25.5,14.7,30.43,South,180,2.0,2.0,63,0.00,,,0.00,meteohub,2013-02-07 23:47:00,
2013-02-07 18:52:00,25.7,14.9,30.43,South,180,1.0,2.0,63,0.00,,,0.00,meteohub,2013-02-07 23:52:00,
2013-02-07 18:57:00,25.7,14.9,30.43,SE,135,1.0,2.0,63,0.00,,,0.00,meteohub,2013-02-07 23:57:00,
2013-02-07 19:02:00,25.7,14.9,30.44,SE,135,0.0,2.0,63,0.00,,,0.00,meteohub,2013-02-08 00:02:00,
2013-02-07 19:07:00,25.7,14.9,30.44,SE,135,0.0,2.0,63,0.00,,,0.00,meteohub,2013-02-08 00:07:00,
2013-02-07 19:12:00,25.7,14.9,30.44,SE,135,1.0,2.0,63,0.00,,,0.00,meteohub,2013-02-08 00:12:00,
2013-02-07 19:18:00,25.9,15.1,30.45,SE,135,0.0,2.0,63,0.00,,,0.00,meteohub,2013-02-08 00:18:00,
2013-02-07 19:23:00,25.9,15.1,30.45,SE,135,1.0,1.0,63,0.00,,,0.00,meteohub,2013-02-08 00:23:00,
2013-02-07 19:28:00,25.9,15.1,30.45,SW,225,1.0,1.0,63,0.00,,,0.00,meteohub,2013-02-08 00:28:00,
2013-02-07 19:33:00,26.1,15.3,30.45,SW,225,0.0,1.0,63,0.00,,,0.00,meteohub,2013-02-08 00:33:00,
2013-02-07 19:38:00,26.1,15.6,30.45,NW,315,1.0,1.0,64,0.00,,,0.00,meteohub,2013-02-08 00:38:00,
2013-02-07 19:43:00,26.1,15.6,30.45,South,180,0.0,1.0,64,0.00,,,0.00,meteohub,2013-02-08 00:43:00,
2013-02-07 19:48:00,26.2,16.2,30.45,NE,45,2.0,2.0,65,0.00,,,0.00,meteohub,2013-02-08 00:48:00,
2013-02-07 19:54:00,26.2,16.2,30.45,South,180,1.0,2.0,65,0.00,,,0.00,meteohub,2013-02-08 00:54:00,
2013-02-07 19:59:00,26.2,16.2,30.44,West,270,2.0,2.0,65,0.00,,,0.00,meteohub,2013-02-08 00:59:00,
2013-02-07 20:04:00,26.2,16.2,30.45,West,270,1.0,2.0,65,0.00,,,0.00,meteohub,2013-02-08 01:04:00,
2013-02-07 20:09:00,26.4,16.5,30.44,SE,135,0.0,2.0,66,0.00,,,0.00,meteohub,2013-02-08 01:09:00,
2013-02-07 20:14:00,26.6,16.3,30.44,NE,45,1.0,2.0,65,0.00,,,0.00,meteohub,2013-02-08 01:14:00,
2013-02-07 20:19:00,26.6,16.7,30.45,West,270,2.0,2.0,66,0.00,,,0.00,meteohub,2013-02-08 01:19:00,
2013-02-07 20:25:00,27.0,17.4,30.45,SW,225,2.0,3.0,67,0.00,,,0.00,meteohub,2013-02-08 01:25:00,
2013-02-07 20:30:00,27.1,18.0,30.45,West,270,1.0,3.0,68,0.00,,,0.00,meteohub,2013-02-08 01:30:00,
2013-02-07 20:35:00,27.3,18.1,30.45,NW,315,1.0,3.0,68,0.00,,,0.00,meteohub,2013-02-08 01:35:00,
2013-02-07 20:40:00,27.5,18.0,30.45,NW,315,3.0,3.0,67,0.00,,,0.00,meteohub,2013-02-08 01:40:00,
2013-02-07 20:45:00,27.7,18.1,30.44,WSW,248,3.0,3.0,67,0.00,,,0.00,meteohub,2013-02-08 01:45:00,
2013-02-07 20:50:00,28.0,18.5,30.44,NE,45,2.0,4.0,67,0.00,,,0.00,meteohub,2013-02-08 01:50:00,
2013-02-07 20:55:00,28.0,18.1,30.44,SW,225,2.0,4.0,66,0.00,,,0.00,meteohub,2013-02-08 01:55:00,
2013-02-07 21:00:00,28.2,18.3,30.44,West,270,2.0,4.0,66,0.00,,,0.00,meteohub,2013-02-08 02:00:00,
2013-02-07 21:06:00,28.4,19.6,30.44,West,270,2.0,3.0,69,0.00,,,0.00,meteohub,2013-02-08 02:06:00,
2013-02-07 21:11:00,28.4,19.6,30.44,North,0,3.0,3.0,69,0.00,,,0.00,meteohub,2013-02-08 02:11:00,
2013-02-07 21:16:00,28.6,19.4,30.44,West,270,3.0,4.0,68,0.00,,,0.00,meteohub,2013-02-08 02:16:00,
2013-02-07 21:21:00,28.8,19.6,30.44,West,270,3.0,4.0,68,0.00,,,0.00,meteohub,2013-02-08 02:21:00,
2013-02-07 21:26:00,28.8,19.6,30.45,North,0,3.0,4.0,68,0.00,,,0.00,meteohub,2013-02-08 02:26:00,
2013-02-07 21:31:00,28.8,19.6,30.45,West,270,3.0,4.0,68,0.00,,,0.00,meteohub,2013-02-08 02:31:00,
2013-02-07 21:36:00,28.9,19.8,30.44,West,270,2.0,4.0,68,0.00,,,0.00,meteohub,2013-02-08 02:36:00,
2013-02-07 21:41:00,28.9,19.8,30.44,NW,315,4.0,4.0,68,0.00,,,0.00,meteohub,2013-02-08 02:41:00,
2013-02-07 21:46:00,28.9,19.8,30.44,SW,225,4.0,4.0,68,0.00,,,0.00,meteohub,2013-02-08 02:46:00,
2013-02-07 21:52:00,28.9,19.8,30.43,SW,225,4.0,4.0,68,0.00,,,0.00,meteohub,2013-02-08 02:52:00,
2013-02-07 21:57:00,28.9,19.8,30.44,West,270,2.0,4.0,68,0.00,,,0.00,meteohub,2013-02-08 02:57:00,
2013-02-07 22:02:00,28.9,19.8,30.43,North,0,3.0,4.0,68,0.00,,,0.00,meteohub,2013-02-08 03:02:00,
2013-02-07 22:07:00,28.9,19.8,30.44,West,270,2.0,4.0,68,0.00,,,0.00,meteohub,2013-02-08 03:07:00,
2013-02-07 22:12:00,28.9,19.8,30.43,West,270,2.0,3.0,68,0.00,,,0.00,meteohub,2013-02-08 03:12:00,
2013-02-07 22:17:00,28.9,19.8,30.43,North,0,4.0,4.0,68,0.00,,,0.00,meteohub,2013-02-08 03:17:00,
2013-02-07 22:22:00,29.1,19.6,30.43,SW,225,4.0,5.0,67,0.00,,,0.00,meteohub,2013-02-08 03:22:00,
2013-02-07 22:27:00,29.1,19.6,30.43,NW,315,3.0,5.0,67,0.00,,,0.00,meteohub,2013-02-08 03:27:00,
2013-02-07 22:32:00,29.1,19.2,30.43,NW,315,3.0,4.0,66,0.00,,,0.00,meteohub,2013-02-08 03:32:00,
2013-02-07 22:37:00,29.1,19.6,30.43,NW,315,3.0,4.0,67,0.00,,,0.00,meteohub,2013-02-08 03:37:00,
2013-02-07 22:42:00,29.1,19.6,30.44,West,270,2.0,4.0,67,0.00,,,0.00,meteohub,2013-02-08 03:42:00,
2013-02-07 22:47:00,29.1,19.6,30.44,North,0,2.0,4.0,67,0.00,,,0.00,meteohub,2013-02-08 03:47:00,
2013-02-07 22:52:00,29.1,19.6,30.44,SW,225,2.0,4.0,67,0.00,,,0.00,meteohub,2013-02-08 03:52:00,
2013-02-07 22:57:00,29.3,19.8,30.45,SW,225,2.0,4.0,67,0.00,,,0.00,meteohub,2013-02-08 03:57:00,
2013-02-07 23:02:00,29.3,19.8,30.45,NW,315,4.0,4.0,67,0.00,,,0.00,meteohub,2013-02-08 04:02:00,
2013-02-07 23:07:00,29.3,19.8,30.45,SE,135,4.0,5.0,67,0.00,,,0.00,meteohub,2013-02-08 04:07:00,
2013-02-07 23:12:00,29.3,19.8,30.45,North,0,2.0,5.0,67,0.00,,,0.00,meteohub,2013-02-08 04:12:00,
2013-02-07 23:17:00,29.3,19.8,30.44,NW,315,4.0,5.0,67,0.00,,,0.00,meteohub,2013-02-08 04:17:00,
2013-02-07 23:22:00,29.3,20.1,30.44,NW,315,3.0,4.0,68,0.00,,,0.00,meteohub,2013-02-08 04:22:00,
2013-02-07 23:27:00,29.3,20.1,30.44,West,270,2.0,4.0,68,0.00,,,0.00,meteohub,2013-02-08 04:27:00,
2013-02-07 23:33:00,29.3,20.1,30.44,NW,315,3.0,4.0,68,0.00,,,0.00,meteohub,2013-02-08 04:33:00,
2013-02-07 23:38:00,29.3,20.1,30.44,West,270,3.0,4.0,68,0.00,,,0.00,meteohub,2013-02-08 04:38:00,
2013-02-07 23:43:00,29.3,20.1,30.44,West,270,3.0,6.0,68,0.00,,,0.00,meteohub,2013-02-08 04:43:00,
2013-02-07 23:48:00,29.3,20.5,30.44,NW,315,2.0,6.0,69,0.00,,,0.00,meteohub,2013-02-08 04:48:00,
2013-02-07 23:53:00,29.3,20.5,30.44,NW,315,4.0,6.0,69,0.00,,,0.00,meteohub,2013-02-08 04:53:00,
2013-02-07 23:58:00,29.5,20.3,30.44,North,0,4.0,5.0,68,0.00,,,0.00,meteohub,2013-02-08 04:58:00,